Jenks, OK

7:16 PM CST on December 09, 2016 (GMT -0600)
Jones Jr.

Weather History for KRVS - November, 2012

Change the Weather History Date:

Wednesday, November 21, 2012

  Actual Average (KTUL) Record (KTUL)
Temperature  
Mean Temperature 56 °F -  
Max Temperature 78 °F 58 °F 79 °F (1927)
Min Temperature 35 °F 35 °F 18 °F (1964)
Degree Days  
Heating Degree Days 8    
Growing Degree Days 6 (Base 50)    
Moisture  
Dew Point 35 °F    
Average Humidity 51    
Maximum Humidity 92    
Minimum Humidity 16    
Precipitation  
Precipitation 0.00 in - - ()
Sea Level Pressure  
Sea Level Pressure 30.19 in    
Wind  
Wind Speed 3 mph (South)    
Max Wind Speed 15 mph    
Max Gust Speed 22 mph    
Visibility 10 miles    
Events      
Averages and records for this station are not official NWS values.
T = Trace of Precipitation, MM = Missing Value Source: NWS Daily Summary

Daily Weather History Graph

Daily Weather History Graph

Search for Another Location

Airport or City:

Trip Planner

Search our weather history database for the weather conditions in past years. The results will help you decide how hot, cold, wet, or windy it might be!

Date:

Astronomy

Nov. 21, 2012 Rise Set
Actual Time 7:07 AM CST 5:12 PM CST
Civil Twilight 6:39 AM CST 5:40 PM CST
Nautical Twilight 6:08 AM CST 6:11 PM CST
Astronomical Twilight 5:37 AM CST 6:42 PM CST
Moon 1:19 PM CST (11/21) 12:38 AM CST (11/21)
Length of Visible Light 11h 00m
Length of Day
10h 05m
First Quarter, 62% of the Moon is Illuminated
Nov 21
First Quarter
Nov 28
Full
Dec 6
Last Quarter
Dec 13
New
Dec 19
First Quarter

Hourly Weather History & Observations

Time (CST) Temp. Dew Point Humidity Pressure Visibility Wind Dir Wind Speed Gust Speed Precip Events Conditions
1:53 AM 39.0 °F 36.0 °F 89% 30.26 in 10.0 mi Calm Calm - N/A   Clear
2:53 AM 37.9 °F 35.1 °F 89% 30.27 in 10.0 mi Calm Calm - N/A   Clear
3:53 AM 39.0 °F 36.0 °F 89% 30.27 in 10.0 mi Calm Calm - N/A   Clear
4:53 AM 37.0 °F 34.0 °F 89% 30.25 in 5.0 mi Calm Calm - N/A   Clear
5:53 AM 36.0 °F 33.1 °F 89% 30.25 in 9.0 mi Calm Calm - N/A   Clear
6:53 AM 35.1 °F 33.1 °F 92% 30.28 in 10.0 mi Calm Calm - N/A   Clear
7:53 AM 36.0 °F 33.1 °F 89% 30.28 in 10.0 mi Calm Calm - N/A   Clear
8:53 AM 50.0 °F 43.0 °F 77% 30.29 in 10.0 mi Calm Calm - N/A   Clear
9:53 AM 55.0 °F 43.0 °F 64% 30.28 in 10.0 mi Calm Calm - N/A   Clear
10:53 AM 66.9 °F 42.1 °F 40% 30.26 in 10.0 mi South 5.8 mph - N/A   Clear
11:53 AM 73.0 °F 35.1 °F 25% 30.24 in 10.0 mi South 6.9 mph - N/A   Clear
12:53 PM 75.9 °F 32.0 °F 20% 30.20 in 10.0 mi SSW 13.8 mph - N/A   Clear
1:53 PM 78.1 °F 30.9 °F 18% 30.17 in 10.0 mi SSW 11.5 mph 18.4 mph N/A   Clear
2:53 PM 77.0 °F 32.0 °F 19% 30.14 in 10.0 mi South 15.0 mph 21.9 mph N/A   Clear
3:53 PM 77.0 °F 27.0 °F 16% 30.13 in 10.0 mi SSW 10.4 mph 19.6 mph N/A   Clear
4:53 PM 73.0 °F 28.9 °F 20% 30.12 in 10.0 mi SSW 6.9 mph - N/A   Clear
5:53 PM 69.1 °F 32.0 °F 25% 30.12 in 10.0 mi South 4.6 mph - N/A   Clear
6:53 PM 63.0 °F 33.1 °F 33% 30.12 in 10.0 mi SSW 5.8 mph - N/A   Clear
7:53 PM 59.0 °F 34.0 °F 39% 30.12 in 10.0 mi South 3.5 mph - N/A   Clear
8:53 PM 64.0 °F 34.0 °F 33% 30.12 in 10.0 mi South 8.1 mph - N/A   Clear
9:53 PM 64.9 °F 36.0 °F 34% 30.10 in 10.0 mi South 9.2 mph - N/A   Clear
10:53 PM 64.0 °F 37.0 °F 37% 30.09 in 10.0 mi South 6.9 mph - N/A   Clear
11:53 PM 62.1 °F 37.9 °F 41% 30.08 in 10.0 mi South 3.5 mph - N/A   Clear